Regional Weather Roundup
Issued by NWS Jackson, KY

Home | Current Version | Previous Version | Graphics & Text | Print | Product List | Glossary On
Versions: 1 2 3 4 5 6 7 8 9 10 11 12 13 14 15 16 17 18 19 20 21 22 23 24 25 26 27 28 29 30 31 32 33 34 35 36 37 38 39 40 41 42 43 44 45 46 47 48 49 50
000
ASUS43 KJKL 200710
RWRJKL

EAST KENTUCKY HOURLY WEATHER ROUNDUP
NATIONAL WEATHER SERVICE JACKSON KY
300 AM EDT SAT SEP 20 2014

NOTE: "FAIR" INDICATES FEW OR NO CLOUDS BELOW 12,000 FEET WITH
NO SIGNIFICANT WEATHER AND/OR OBSTRUCTIONS TO VISIBILITY.

* THESE REPORTS ARE NOT UNDER NWS QUALITY CONTROL AND MAY NOT
  REPORT WEATHER SUCH AS PRECIPITATION AND FOG.

KYZ079-080-083-085-087-088-110-112-115-119-120-200800
...EASTERN KENTUCKY...

CITY           SKY/WX    TMP DP  RH WIND       PRES   REMARKS
JACKSON        PTCLDY    65  58  78 S5        30.14R
LONDON         CLEAR     65  58  78 CALM      30.14R
SOMERSET*      PTCLDY    64  63  94 CALM      30.13S
MONTICELLO*    CLEAR     70  61  73 S9        30.12S
WILLIAMSBURG*  CLEAR     64  63  94 SE5       30.14S
MIDDLESBORO*   CLEAR     61  58  90 W3        30.17S
HARLAN APT*    PTSUNNY   66  54  63 MISG      30.18S
BLACK MTN*       N/A     55  54  94 SW1         N/A
PIKEVILLE APT* MOCLDY    64  57  77 S3        30.16S
BIG SANDY*     PTSUNNY   67  57  70 S9        30.15S
MOREHEAD APT*  PTSUNNY   63  59  88 S6        30.13S
$$

KYZ035-036-041-042-044-050-067-078-099-200800
...CENTRAL KENTUCKY...

CITY           SKY/WX    TMP DP  RH WIND       PRES   REMARKS
MT STERLING*   PTCLDY    64  61  88 S7        30.12S
FLEMING/MASON* PTCLDY    61  59  94 S5        30.10F
DANVILLE*      PTCLDY    57  55  94 CALM      30.11S
RICHMOND*      PTCLDY    66  59  77 S7        30.10F
LEXINGTON      MOCLDY    65  61  87 SE9       30.09F
FRANKFORT      PTCLDY    57  54  89 CALM      30.07F
$$

KYZ091>093-OHZ055-061-077-WVZ005-015-034-035-042-200800
...SOUTHERN OHIO/WEST VIRGINIA...

CITY           SKY/WX    TMP DP  RH WIND       PRES   REMARKS
COVINGTON      PTCLDY    62  55  77 S6        30.07F
COLUMBUS       PTCLDY    62  54  74 SE3       30.07F
DAYTON         PTCLDY    62  52  69 S7        30.08S
WILMINGTON     CLEAR     58  53  84 S7        30.07F
HUNTINGTON     CLEAR     64  58  80 S5        30.12R
CHARLESTON     CLEAR     62  58  86 CALM      30.15S
PINEVILLE*     CLEAR     58  58 100 MISG      30.25F FOG
BECKLEY        PTCLDY    59  55  87 S8        30.24S
BLUEFIELD      CLOUDY    63  55  75 VRB3      30.26S
$$

VAZ002-007-008-TNZ017-027-036-066-071-200800
...SOUTHWEST VIRGINIA/EAST TENNESSEE...

CITY           SKY/WX    TMP DP  RH WIND       PRES   REMARKS
WISE*          CLEAR     61  52  72 S9        30.23S
JONESVILLE*    PTSUNNY   57  57 100 CALM      30.21S
ABINGDON*      CLEAR     62  56  81 CALM      30.23S
BRISTOL        CLEAR     59  54  83 CALM      30.20S
KNOXVILLE      CLEAR     65  61  87 N3        30.13
OAK RIDGE      MOCLDY    67  62  84 CALM      30.16S
CROSSVILLE     CLEAR     67  58  72 S6        30.16F
NASHVILLE      PTCLDY    72  65  78 S10       30.08R
$$

...KEY TO REMARKS...
VSB - VISIBILITY IN MILES
WCI - WIND CHILL INDEX
HX  - HEAT INDEX

$$



USA.gov is the U.S. government's official web portal to all federal, state and local government web resources and services.